2024-170C (61197 NORAD) Tracking and Keplerian Element Data

This shows tracking and keplerian element data for the satellite.

Feedback or suggestion? Click here.




ElementValue
Catalog61197
Name2024-170C
Epoch Orbit316
Epoch Day286.86103078
Epoch Year2024
RAAN357.181
Inclination44.8629
Eccentricity0.0006283
Argument of Perigee16.006
Mean Anonmoly344.0974
Mean Motion14.13229625
Decay Rate1.622E-05
L11 61197U 24170C 24286.86103078 .00001622 00000+0 92973-3 0 9996
L22 61197 44.8629 357.1810 0006283 16.0060 344.0974 14.13229625 3162



Live tracking and technical data element details for 2024-170C (NORAD 61197). 2024-170C can be tracked NOW for your location showing map with azimuth and elevation plus other details from your city location.







IsCatalogInMostPopularTable: catalog: 61197, numindb: 22
Update: records affected: 1



GetName: 61197 2024-170C

Hit Count: updated at: Fri, 06 Dec 2024 10:36:22 GMT